Weather History for Terrell, TX

Change the Weather History Date:

Saturday, November 10, 2012

  Actual Average (KDFW) Record (KDFW)
Temperature  
Mean Temperature 71 °F 59 °F  
Max Temperature 80 °F 69 °F 86 °F (1949)
Min Temperature 62 °F 48 °F 26 °F (1950)
Degree Days  
Heating Degree Days 0 7  
Month to date heating degree days 61  
Since 1 July heating degree days 133  
Cooling Degree Days 6 1  
Month to date cooling degree days 18  
Year to date cooling degree days 2741  
Growing Degree Days 21 (Base 50)    
Moisture  
Dew Point 58 °F    
Average Humidity 70    
Maximum Humidity 94    
Minimum Humidity 45    
Precipitation  
Precipitation 0.00 in 0.10 in 2.23 in (2008)
Month to date precipitation 1.09  
Year to date precipitation 31.97  
Snow  
Snow 0.00 in 0.00 in 0.00 in ()
Month to date snowfall 0.0  
Since 1 July snowfall 0.0  
Since 1 September snowfall 0.0  
Snow Depth -    
Sea Level Pressure  
Sea Level Pressure 29.95 in    
Wind  
Wind Speed 14 mph (SSE)    
Max Wind Speed 22 mph    
Max Gust Speed 33 mph    
Visibility 10 miles    
Events      
T = Trace of Precipitation, MM = Missing Value Source: NWS Daily Summary

Daily Weather History Graph

Daily Weather History Graph

Search for Another Location

Airport:

Trip Planner

Search our weather history database for the weather conditions in past years. The results will help you decide how hot, cold, wet, or windy it might be!

Date:

Astronomy

Nov. 10, 2012 Rise Set
Actual Time 6:51 AM CST 5:26 PM CST
Civil Twilight 6:25 AM CST 5:52 PM CST
Nautical Twilight 5:55 AM CST 6:22 PM CST
Astronomical Twilight 5:26 AM CST 6:51 PM CST
Moon 3:08 AM CST (11/10) 3:05 PM CST (11/10)
Length of Visible Light 11h 27m
Length of Day
10h 35m
Waning Crescent, 14% of the Moon is Illuminated
Nov 10
Waning Crescent
Nov 13
New
Nov 20
First Quarter
Nov 28
Full
Dec 6
Last Quarter

Hourly Weather History & Observations

Time (CST) Temp. Heat Index Dew Point Humidity Pressure Visibility Wind Dir Wind Speed Gust Speed Precip Events Conditions
12:53 AM 66.0 °F - 59.0 °F 78% 30.01 in 10.0 mi South 12.7 mph - N/A   Clear
1:53 AM 64.9 °F - 59.0 °F 81% 30.01 in 10.0 mi South 11.5 mph - N/A   Clear
2:53 AM 64.0 °F - 59.0 °F 84% 29.99 in 10.0 mi South 8.1 mph - N/A   Clear
3:53 AM 63.0 °F - 59.0 °F 87% 29.99 in 10.0 mi South 9.2 mph - N/A   Partly Cloudy
4:23 AM 62.6 °F - 59.0 °F 88% 30.00 in 10.0 mi SSE 12.7 mph - N/A   Mostly Cloudy
4:37 AM 62.6 °F - 59.0 °F 88% 30.01 in 10.0 mi South 12.7 mph - N/A   Scattered Clouds
4:44 AM 62.6 °F - 60.8 °F 94% 30.01 in 10.0 mi South 12.7 mph - N/A   Mostly Cloudy
4:53 AM 63.0 °F - 60.1 °F 90% 29.99 in 10.0 mi South 12.7 mph - N/A   Mostly Cloudy
5:13 AM 62.6 °F - 60.8 °F 94% 30.01 in 10.0 mi South 10.4 mph - N/A   Scattered Clouds
5:53 AM 63.0 °F - 60.1 °F 90% 30.00 in 10.0 mi South 9.2 mph - N/A   Clear
6:53 AM 62.1 °F - 59.0 °F 90% 30.01 in 10.0 mi South 10.4 mph - N/A   Partly Cloudy
7:53 AM 64.0 °F - 60.1 °F 87% 30.02 in 10.0 mi South 15.0 mph - N/A   Clear
8:53 AM 68.0 °F - 59.0 °F 73% 30.01 in 10.0 mi South 19.6 mph 33.4 mph N/A   Partly Cloudy
9:53 AM 73.0 °F - 59.0 °F 61% 30.01 in 10.0 mi South 20.7 mph 29.9 mph N/A   Partly Cloudy
10:53 AM 75.0 °F - 59.0 °F 57% 30.00 in 10.0 mi South 17.3 mph 28.8 mph N/A   Scattered Clouds
11:53 AM 77.0 °F - 59.0 °F 54% 29.96 in 10.0 mi South 20.7 mph 32.2 mph N/A   Mostly Cloudy
12:53 PM 78.1 °F - 59.0 °F 52% 29.93 in 10.0 mi SSE 18.4 mph 29.9 mph N/A   Mostly Cloudy
1:53 PM 78.1 °F - 57.0 °F 48% 29.91 in 10.0 mi South 20.7 mph 29.9 mph N/A   Mostly Cloudy
2:53 PM 80.1 °F 80.4 °F 57.0 °F 45% 29.88 in 10.0 mi SSE 21.9 mph 31.1 mph N/A   Mostly Cloudy
3:53 PM 79.0 °F - 55.9 °F 45% 29.88 in 10.0 mi South 18.4 mph 32.2 mph N/A   Mostly Cloudy
4:53 PM 77.0 °F - 55.9 °F 48% 29.88 in 10.0 mi SSE 18.4 mph 23.0 mph N/A   Clear
5:53 PM 75.0 °F - 55.9 °F 51% 29.88 in 10.0 mi SSE 13.8 mph - N/A   Clear
6:53 PM 73.9 °F - 55.0 °F 52% 29.88 in 10.0 mi SSE 15.0 mph - N/A   Clear
7:53 PM 73.0 °F - 55.0 °F 53% 29.88 in 10.0 mi SSE 11.5 mph - N/A   Clear
8:53 PM 72.0 °F - 57.0 °F 59% 29.88 in 10.0 mi SSE 15.0 mph - N/A   Mostly Cloudy
10:53 PM 71.1 °F - 59.0 °F 66% 29.88 in 10.0 mi South 18.4 mph 24.2 mph N/A   Scattered Clouds
11:53 PM 70.0 °F - 60.1 °F 71% 29.87 in 10.0 mi South 15.0 mph - N/A   Partly Cloudy